sat.trackr.live / text

‹ back to catalog

STARLINK-5526

NORAD 56496 · 2023-064BA

PAYLOAD ACTIVE UNKNOWN

§ Identity

Operator
Country
US
Launch date
2023-05-10
Launch site
AFWTR
Launch vehicle
Mass (kg)
RCS (m²)

Purposes: comms

External: N2YO · Heavens-Above · Gunter

§ Orbital elements

Epoch: 2026-05-24T18:53:01.180608Z

Period
96.11 min
Inclination
69.9992°
Eccentricity
0.0003676
Mean motion
14.98330866 rev/d
Perigee alt
569.5 km
Apogee alt
574.6 km
Semi-major
6,950.2 km
B*
1.4526e-5
RAAN
272.4822°
Arg perigee
267.5882°
Mean anomaly
92.4856°
Rev number
16,763

§ Raw data

STARLINK-55261 56496U 23064BA  26144.78681922  .00000080  00000+0  14526-4 0  99942 56496  69.9992 272.4822 0003676 267.5882  92.4856 14.98330866167638

JSON: /api/v1/satellites/56496 · /tle

For live sub-satellite position, see the globe view (requires WebGL).

§ Visibility from observer

Set your observer location to see the next 7 days of passes ≥ 10°. The values pass through the URL so the page stays shareable.

No JS? Fill the form by hand. The geolocation button needs JavaScript.